Year,Month,Day,Hour,Minute,Value (Times are PST for temperature in C)
2006,06,30,00,00,14.00
2006,06,30,00,01,14.00
2006,06,30,00,02,13.90
2006,06,30,00,03,13.90
2006,06,30,00,04,13.90
2006,06,30,00,05,13.80
2006,06,30,00,06,13.80
2006,06,30,00,07,13.80
2006,06,30,00,08,13.80
2006,06,30,00,09,13.80
2006,06,30,00,10,13.70
2006,06,30,00,11,13.70
2006,06,30,00,12,13.70
2006,06,30,00,13,13.60
2006,06,30,00,14,13.60
2006,06,30,00,15,13.60
2006,06,30,00,16,13.60
2006,06,30,00,17,13.60
2006,06,30,00,18,13.50
2006,06,30,00,19,13.40
2006,06,30,00,20,13.40
2006,06,30,00,21,13.40
2006,06,30,00,22,13.30
2006,06,30,00,23,13.30
2006,06,30,00,24,13.30
2006,06,30,00,25,13.30
2006,06,30,00,26,13.20
2006,06,30,00,27,13.20
2006,06,30,00,28,13.20
2006,06,30,00,29,13.20
2006,06,30,00,30,13.10
2006,06,30,00,31,13.10
2006,06,30,00,32,13.10
2006,06,30,00,33,13.10
2006,06,30,00,34,13.10
2006,06,30,00,35,13.00
2006,06,30,00,36,13.00
2006,06,30,00,37,13.00
2006,06,30,00,38,13.10
2006,06,30,00,39,13.10
2006,06,30,00,40,13.10
2006,06,30,00,41,13.10
2006,06,30,00,42,13.10
2006,06,30,00,43,13.10
2006,06,30,00,44,13.10
2006,06,30,00,45,13.10
2006,06,30,00,46,13.10
2006,06,30,00,47,13.10
2006,06,30,00,48,13.10
2006,06,30,00,49,13.10
2006,06,30,00,50,13.10
2006,06,30,00,51,13.00
2006,06,30,00,52,13.00
2006,06,30,00,53,13.00
2006,06,30,00,54,13.00
2006,06,30,00,55,12.90
2006,06,30,00,56,12.90
2006,06,30,00,57,12.90
2006,06,30,00,58,12.90
2006,06,30,00,59,12.90
2006,06,30,01,00,12.80
2006,06,30,01,01,12.80
2006,06,30,01,02,12.80
2006,06,30,01,03,12.80
2006,06,30,01,04,12.80
2006,06,30,01,05,12.70
2006,06,30,01,06,12.70
2006,06,30,01,07,12.70
2006,06,30,01,08,12.70
2006,06,30,01,09,12.60
2006,06,30,01,10,12.60
2006,06,30,01,11,12.60
2006,06,30,01,12,12.60
2006,06,30,01,13,12.50
2006,06,30,01,14,12.50
2006,06,30,01,15,12.50
2006,06,30,01,16,12.40
2006,06,30,01,17,12.40
2006,06,30,01,18,12.40
2006,06,30,01,19,12.40
2006,06,30,01,20,12.40
2006,06,30,01,21,12.40
2006,06,30,01,22,12.40
2006,06,30,01,23,12.40
2006,06,30,01,24,12.40
2006,06,30,01,25,12.40
2006,06,30,01,26,12.40
2006,06,30,01,27,12.30
2006,06,30,01,28,12.30
2006,06,30,01,29,12.30
2006,06,30,01,30,12.30
2006,06,30,01,31,12.30
2006,06,30,01,32,12.30
2006,06,30,01,33,12.30
2006,06,30,01,34,12.20
2006,06,30,01,35,12.30
2006,06,30,01,36,12.30
2006,06,30,01,37,12.30
2006,06,30,01,38,12.30
2006,06,30,01,39,12.30
2006,06,30,01,40,12.30
2006,06,30,01,41,12.30
2006,06,30,01,42,12.30
2006,06,30,01,43,12.30
2006,06,30,01,44,12.30
2006,06,30,01,45,12.30
2006,06,30,01,46,12.30
2006,06,30,01,47,12.30
2006,06,30,01,48,12.40
2006,06,30,01,49,12.40
2006,06,30,01,50,12.40
2006,06,30,01,51,12.40
2006,06,30,01,52,12.40
2006,06,30,01,53,12.40
2006,06,30,01,54,12.40
2006,06,30,01,55,12.30
2006,06,30,01,56,12.30
2006,06,30,01,57,12.30
2006,06,30,01,58,12.30
2006,06,30,01,59,12.30
2006,06,30,02,00,12.30
2006,06,30,02,01,12.30
2006,06,30,02,02,12.30
2006,06,30,02,03,12.30
2006,06,30,02,04,12.30
2006,06,30,02,05,12.30
2006,06,30,02,06,12.30
2006,06,30,02,07,12.30
2006,06,30,02,08,12.30
2006,06,30,02,09,12.30
2006,06,30,02,10,12.30
2006,06,30,02,11,12.30
2006,06,30,02,12,12.30
2006,06,30,02,13,12.20
2006,06,30,02,14,12.20
2006,06,30,02,15,12.10
2006,06,30,02,16,12.10
2006,06,30,02,17,12.10
2006,06,30,02,18,12.00
2006,06,30,02,19,11.90
2006,06,30,02,20,11.90
2006,06,30,02,21,11.80
2006,06,30,02,22,11.80
2006,06,30,02,23,11.80
2006,06,30,02,24,11.80
2006,06,30,02,25,11.80
2006,06,30,02,26,11.70
2006,06,30,02,27,11.70
2006,06,30,02,28,11.70
2006,06,30,02,29,11.70
2006,06,30,02,30,11.70
2006,06,30,02,31,11.70
2006,06,30,02,32,11.70
2006,06,30,02,33,11.70
2006,06,30,02,34,11.60
2006,06,30,02,35,11.60
2006,06,30,02,36,11.60
2006,06,30,02,37,11.60
2006,06,30,02,38,11.60
2006,06,30,02,39,11.60
2006,06,30,02,40,11.60
2006,06,30,02,41,11.60
2006,06,30,02,42,11.50
2006,06,30,02,43,11.50
2006,06,30,02,44,11.50
2006,06,30,02,45,11.60
2006,06,30,02,46,11.60
2006,06,30,02,47,11.60
2006,06,30,02,48,11.50
2006,06,30,02,49,11.50
2006,06,30,02,50,11.50
2006,06,30,02,51,11.50
2006,06,30,02,52,11.50
2006,06,30,02,53,11.50
2006,06,30,02,54,11.50
2006,06,30,02,55,11.50
2006,06,30,02,56,11.40
2006,06,30,02,57,11.40
2006,06,30,02,58,11.40
2006,06,30,02,59,11.40
2006,06,30,03,00,11.40
2006,06,30,03,01,11.30
2006,06,30,03,02,11.30
2006,06,30,03,03,11.30
2006,06,30,03,04,11.30
2006,06,30,03,05,11.20
2006,06,30,03,06,11.20
2006,06,30,03,07,11.20
2006,06,30,03,08,11.20
2006,06,30,03,09,11.20
2006,06,30,03,10,11.20
2006,06,30,03,11,11.20
2006,06,30,03,12,11.20
2006,06,30,03,13,11.20
2006,06,30,03,14,11.20
2006,06,30,03,15,11.20
2006,06,30,03,16,11.20
2006,06,30,03,17,11.20
2006,06,30,03,18,11.20
2006,06,30,03,19,11.20
2006,06,30,03,20,11.10
2006,06,30,03,21,11.10
2006,06,30,03,22,11.20
2006,06,30,03,23,11.20
2006,06,30,03,24,11.20
2006,06,30,03,25,11.20
2006,06,30,03,26,11.20
2006,06,30,03,27,11.20
2006,06,30,03,28,11.20
2006,06,30,03,29,11.20
2006,06,30,03,30,11.20
2006,06,30,03,31,11.20
2006,06,30,03,32,11.20
2006,06,30,03,33,11.20
2006,06,30,03,34,11.20
2006,06,30,03,35,11.20
2006,06,30,03,36,11.20
2006,06,30,03,37,11.20
2006,06,30,03,38,11.20
2006,06,30,03,39,11.10
2006,06,30,03,40,11.10
2006,06,30,03,41,11.10
2006,06,30,03,42,11.10
2006,06,30,03,43,11.10
2006,06,30,03,44,11.10
2006,06,30,03,45,11.10
2006,06,30,03,46,11.10
2006,06,30,03,47,11.00
2006,06,30,03,48,11.00
2006,06,30,03,49,10.90
2006,06,30,03,50,10.90
2006,06,30,03,51,10.90
2006,06,30,03,52,10.90
2006,06,30,03,53,10.90
2006,06,30,03,54,10.80
2006,06,30,03,55,10.80
2006,06,30,03,56,10.80
2006,06,30,03,57,10.80
2006,06,30,03,58,10.70
2006,06,30,03,59,10.70
2006,06,30,04,00,10.70
2006,06,30,04,01,10.70
2006,06,30,04,02,10.70
2006,06,30,04,03,10.60
2006,06,30,04,04,10.60
2006,06,30,04,05,10.60
2006,06,30,04,06,10.60
2006,06,30,04,07,10.60
2006,06,30,04,08,10.60
2006,06,30,04,09,10.60
2006,06,30,04,10,10.60
2006,06,30,04,11,10.60
2006,06,30,04,12,10.60
2006,06,30,04,13,10.60
2006,06,30,04,14,10.60
2006,06,30,04,15,10.60
2006,06,30,04,16,10.60
2006,06,30,04,17,10.60
2006,06,30,04,18,10.60
2006,06,30,04,19,10.60
2006,06,30,04,20,10.60
2006,06,30,04,21,10.60
2006,06,30,04,22,10.60
2006,06,30,04,23,10.60
2006,06,30,04,24,10.60
2006,06,30,04,25,10.60
2006,06,30,04,26,10.60
2006,06,30,04,27,10.50
2006,06,30,04,28,10.50
2006,06,30,04,29,10.50
2006,06,30,04,30,10.50
2006,06,30,04,31,10.50
2006,06,30,04,32,10.50
2006,06,30,04,33,10.40
2006,06,30,04,34,10.40
2006,06,30,04,35,10.40
2006,06,30,04,36,10.40
2006,06,30,04,37,10.40
2006,06,30,04,38,10.40
2006,06,30,04,39,10.40
2006,06,30,04,40,10.40
2006,06,30,04,41,10.40
2006,06,30,04,42,10.50
2006,06,30,04,43,10.50
2006,06,30,04,44,10.50
2006,06,30,04,45,10.40
2006,06,30,04,46,10.40
2006,06,30,04,47,10.40
2006,06,30,04,48,10.40
2006,06,30,04,49,10.40
2006,06,30,04,50,10.40
2006,06,30,04,51,10.30
2006,06,30,04,52,10.30
2006,06,30,04,53,10.30
2006,06,30,04,54,10.30
2006,06,30,04,55,10.30
2006,06,30,04,56,10.30
2006,06,30,04,57,10.30
2006,06,30,04,58,10.30
2006,06,30,04,59,10.40
2006,06,30,05,00,10.40
2006,06,30,05,01,10.40
2006,06,30,05,02,10.40
2006,06,30,05,03,10.30
2006,06,30,05,04,10.30
2006,06,30,05,05,10.30
2006,06,30,05,06,10.30
2006,06,30,05,07,10.30
2006,06,30,05,08,10.30
2006,06,30,05,09,10.30
2006,06,30,05,10,10.30
2006,06,30,05,11,10.20
2006,06,30,05,12,10.20
2006,06,30,05,13,10.20
2006,06,30,05,14,10.20
2006,06,30,05,15,10.20
2006,06,30,05,16,10.20
2006,06,30,05,17,10.20
2006,06,30,05,18,10.10
2006,06,30,05,19,10.10
2006,06,30,05,20,10.10
2006,06,30,05,21,10.10
2006,06,30,05,22,10.10
2006,06,30,05,23,10.10
2006,06,30,05,24,10.10
2006,06,30,05,25,10.10
2006,06,30,05,26,10.10
2006,06,30,05,27,10.00
2006,06,30,05,28,10.00
2006,06,30,05,29,10.00
2006,06,30,05,30,9.90
2006,06,30,05,31,9.90
2006,06,30,05,32,9.90
2006,06,30,05,33,9.90
2006,06,30,05,34,9.80
2006,06,30,05,35,9.80
2006,06,30,05,36,9.80
2006,06,30,05,37,9.80
2006,06,30,05,38,9.80
2006,06,30,05,39,9.80
2006,06,30,05,40,9.80
2006,06,30,05,41,9.80
2006,06,30,05,42,9.80
2006,06,30,05,43,9.80
2006,06,30,05,44,9.90
2006,06,30,05,45,9.90
2006,06,30,05,46,9.90
2006,06,30,05,47,9.90
2006,06,30,05,48,9.90
2006,06,30,05,49,9.90
2006,06,30,05,50,9.90
2006,06,30,05,51,9.90
2006,06,30,05,52,9.90
2006,06,30,05,53,10.00
2006,06,30,05,54,10.00
2006,06,30,05,55,10.00
2006,06,30,05,56,10.10
2006,06,30,05,57,10.10
2006,06,30,05,58,10.10
2006,06,30,05,59,10.10
2006,06,30,06,00,10.20
2006,06,30,06,01,10.20
2006,06,30,06,02,10.30
2006,06,30,06,03,10.30
2006,06,30,06,04,10.40
2006,06,30,06,05,10.50
2006,06,30,06,06,10.50
2006,06,30,06,07,10.60
2006,06,30,06,08,10.70
2006,06,30,06,09,10.70
2006,06,30,06,10,10.80
2006,06,30,06,11,10.80
2006,06,30,06,12,10.90
2006,06,30,06,13,10.90
2006,06,30,06,14,11.00
2006,06,30,06,15,11.10
2006,06,30,06,16,11.20
2006,06,30,06,17,11.20
2006,06,30,06,18,11.20
2006,06,30,06,19,11.30
2006,06,30,06,20,11.40
2006,06,30,06,21,11.40
2006,06,30,06,22,11.50
2006,06,30,06,23,11.60
2006,06,30,06,24,11.60
2006,06,30,06,25,11.70
2006,06,30,06,26,11.80
2006,06,30,06,27,11.80
2006,06,30,06,28,11.90
2006,06,30,06,29,12.00
2006,06,30,06,30,12.10
2006,06,30,06,31,12.10
2006,06,30,06,32,12.20
2006,06,30,06,33,12.20
2006,06,30,06,34,12.30
2006,06,30,06,35,12.30
2006,06,30,06,36,12.30
2006,06,30,06,37,12.30
2006,06,30,06,38,12.30
2006,06,30,06,39,12.30
2006,06,30,06,40,12.30
2006,06,30,06,41,12.40
2006,06,30,06,42,12.40
2006,06,30,06,43,12.40
2006,06,30,06,44,12.50
2006,06,30,06,45,12.60
2006,06,30,06,46,12.60
2006,06,30,06,47,12.60
2006,06,30,06,48,12.60
2006,06,30,06,49,12.70
2006,06,30,06,50,12.70
2006,06,30,06,51,12.70
2006,06,30,06,52,12.70
2006,06,30,06,53,12.80
2006,06,30,06,54,12.80
2006,06,30,06,55,12.80
2006,06,30,06,56,12.90
2006,06,30,06,57,13.00
2006,06,30,06,58,13.00
2006,06,30,06,59,13.10
2006,06,30,07,00,13.10
2006,06,30,07,01,13.20
2006,06,30,07,02,13.30
2006,06,30,07,03,13.40
2006,06,30,07,04,13.50
2006,06,30,07,05,13.60
2006,06,30,07,06,13.80
2006,06,30,07,07,13.90
2006,06,30,07,08,14.00
2006,06,30,07,09,14.20
2006,06,30,07,10,14.40
2006,06,30,07,11,14.60
2006,06,30,07,12,14.80
2006,06,30,07,13,15.00
2006,06,30,07,14,15.00
2006,06,30,07,15,15.10
2006,06,30,07,16,15.20
2006,06,30,07,17,15.30
2006,06,30,07,18,15.40
2006,06,30,07,19,15.50
2006,06,30,07,20,15.60
2006,06,30,07,21,15.70
2006,06,30,07,22,15.70
2006,06,30,07,23,15.80
2006,06,30,07,24,15.80
2006,06,30,07,25,15.80
2006,06,30,07,26,15.80
2006,06,30,07,27,15.80
2006,06,30,07,28,15.80
2006,06,30,07,29,15.80
2006,06,30,07,30,15.80
2006,06,30,07,31,15.80
2006,06,30,07,32,15.80
2006,06,30,07,33,15.70
2006,06,30,07,34,15.70
2006,06,30,07,35,15.70
2006,06,30,07,36,15.70
2006,06,30,07,37,15.80
2006,06,30,07,38,15.80
2006,06,30,07,39,15.80
2006,06,30,07,40,15.90
2006,06,30,07,41,16.00
2006,06,30,07,42,16.10
2006,06,30,07,43,16.10
2006,06,30,07,44,16.20
2006,06,30,07,45,16.20
2006,06,30,07,46,16.30
2006,06,30,07,47,16.40
2006,06,30,07,48,16.40
2006,06,30,07,49,16.40
2006,06,30,07,50,16.40
2006,06,30,07,51,16.50
2006,06,30,07,52,16.50
2006,06,30,07,53,16.60
2006,06,30,07,54,16.60
2006,06,30,07,55,16.60
2006,06,30,07,56,16.60
2006,06,30,07,57,16.70
2006,06,30,07,58,16.70
2006,06,30,07,59,16.70
2006,06,30,08,00,16.80
2006,06,30,08,01,16.80
2006,06,30,08,02,16.90
2006,06,30,08,03,16.90
2006,06,30,08,04,16.90
2006,06,30,08,05,16.90
2006,06,30,08,06,17.00
2006,06,30,08,07,17.00
2006,06,30,08,08,17.10
2006,06,30,08,09,17.10
2006,06,30,08,10,17.10
2006,06,30,08,11,17.20
2006,06,30,08,12,17.30
2006,06,30,08,13,17.30
2006,06,30,08,14,17.40
2006,06,30,08,15,17.40
2006,06,30,08,16,17.30
2006,06,30,08,17,17.30
2006,06,30,08,18,17.30
2006,06,30,08,19,17.40
2006,06,30,08,20,17.50
2006,06,30,08,21,17.70
2006,06,30,08,22,17.80
2006,06,30,08,23,17.90
2006,06,30,08,24,17.90
2006,06,30,08,25,17.90
2006,06,30,08,26,18.00
2006,06,30,08,27,18.10
2006,06,30,08,28,18.10
2006,06,30,08,29,18.20
2006,06,30,08,30,18.40
2006,06,30,08,31,18.50
2006,06,30,08,32,18.60
2006,06,30,08,33,18.70
2006,06,30,08,34,18.80
2006,06,30,08,35,18.90
2006,06,30,08,36,19.00
2006,06,30,08,37,19.10
2006,06,30,08,38,19.20
2006,06,30,08,39,19.30
2006,06,30,08,40,19.40
2006,06,30,08,41,19.50
2006,06,30,08,42,19.50
2006,06,30,08,43,19.60
2006,06,30,08,44,19.60
2006,06,30,08,45,19.70
2006,06,30,08,46,19.70
2006,06,30,08,47,19.70
2006,06,30,08,48,19.70
2006,06,30,08,49,19.80
2006,06,30,08,50,19.90
2006,06,30,08,51,19.80
2006,06,30,08,52,19.80
2006,06,30,08,53,19.80
2006,06,30,08,54,19.80
2006,06,30,08,55,19.80
2006,06,30,08,56,19.90
2006,06,30,08,57,19.80
2006,06,30,08,58,19.70
2006,06,30,08,59,19.70
2006,06,30,09,00,19.80
2006,06,30,09,01,19.80
2006,06,30,09,02,19.90
2006,06,30,09,03,20.00
2006,06,30,09,04,20.10
2006,06,30,09,05,20.20
2006,06,30,09,06,20.20
2006,06,30,09,07,20.30
2006,06,30,09,08,20.30
2006,06,30,09,09,20.30
2006,06,30,09,10,20.40
2006,06,30,09,11,20.40
2006,06,30,09,12,20.40
2006,06,30,09,13,20.40
2006,06,30,09,14,20.40
2006,06,30,09,15,20.20
2006,06,30,09,16,20.10
2006,06,30,09,17,20.00
2006,06,30,09,18,19.90
2006,06,30,09,19,19.80
2006,06,30,09,20,19.70
2006,06,30,09,21,19.70
2006,06,30,09,22,19.70
2006,06,30,09,23,19.70
2006,06,30,09,24,19.70
2006,06,30,09,25,19.70
2006,06,30,09,26,19.70
2006,06,30,09,27,19.70
2006,06,30,09,28,19.70
2006,06,30,09,29,19.70
2006,06,30,09,30,19.70
2006,06,30,09,31,19.70
2006,06,30,09,32,19.70
2006,06,30,09,33,19.60
2006,06,30,09,34,19.60
2006,06,30,09,35,19.60
2006,06,30,09,36,19.70
2006,06,30,09,37,19.60
2006,06,30,09,38,19.60
2006,06,30,09,39,19.60
2006,06,30,09,40,19.60
2006,06,30,09,41,19.70
2006,06,30,09,42,19.70
2006,06,30,09,43,19.60
2006,06,30,09,44,19.60
2006,06,30,09,45,19.60
2006,06,30,09,46,19.70
2006,06,30,09,47,19.80
2006,06,30,09,48,19.80
2006,06,30,09,49,19.80
2006,06,30,09,50,19.80
2006,06,30,09,51,19.90
2006,06,30,09,52,19.90
2006,06,30,09,53,20.00
2006,06,30,09,54,20.10
2006,06,30,09,55,20.20
2006,06,30,09,56,20.30
2006,06,30,09,57,20.30
2006,06,30,09,58,20.30
2006,06,30,09,59,20.30
2006,06,30,10,00,20.30
2006,06,30,10,01,20.30
2006,06,30,10,02,20.30
2006,06,30,10,03,20.40
2006,06,30,10,04,20.40
2006,06,30,10,05,20.50
2006,06,30,10,06,20.60
2006,06,30,10,07,20.70
2006,06,30,10,08,20.70
2006,06,30,10,09,20.70
2006,06,30,10,10,20.70
2006,06,30,10,11,20.70
2006,06,30,10,12,20.80
2006,06,30,10,13,20.70
2006,06,30,10,14,20.80
2006,06,30,10,15,20.80
2006,06,30,10,16,20.70
2006,06,30,10,17,20.70
2006,06,30,10,18,20.70
2006,06,30,10,19,20.70
2006,06,30,10,20,20.70
2006,06,30,10,21,20.80
2006,06,30,10,22,20.90
2006,06,30,10,23,20.90
2006,06,30,10,24,20.90
2006,06,30,10,25,20.90
2006,06,30,10,26,21.00
2006,06,30,10,27,21.00
2006,06,30,10,28,21.10
2006,06,30,10,29,21.10
2006,06,30,10,30,21.00
2006,06,30,10,31,20.90
2006,06,30,10,32,20.80
2006,06,30,10,33,20.60
2006,06,30,10,34,20.60
2006,06,30,10,35,20.50
2006,06,30,10,36,20.40
2006,06,30,10,37,20.40
2006,06,30,10,38,20.30
2006,06,30,10,39,20.40
2006,06,30,10,40,20.40
2006,06,30,10,41,20.40
2006,06,30,10,42,20.40
2006,06,30,10,43,20.40
2006,06,30,10,44,20.30
2006,06,30,10,45,20.20
2006,06,30,10,46,20.10
2006,06,30,10,47,20.00
2006,06,30,10,48,19.90
2006,06,30,10,49,19.80
2006,06,30,10,50,19.60
2006,06,30,10,51,19.50
2006,06,30,10,52,19.40
2006,06,30,10,53,19.30
2006,06,30,10,54,19.30
2006,06,30,10,55,19.30
2006,06,30,10,56,19.30
2006,06,30,10,57,19.20
2006,06,30,10,58,19.10
2006,06,30,10,59,19.10
2006,06,30,11,00,19.10
2006,06,30,11,01,19.00
2006,06,30,11,02,18.90
2006,06,30,11,03,18.90
2006,06,30,11,04,18.90
2006,06,30,11,05,18.90
2006,06,30,11,06,19.00
2006,06,30,11,07,19.10
2006,06,30,11,08,19.10
2006,06,30,11,09,19.20
2006,06,30,11,10,19.30
2006,06,30,11,11,19.30
2006,06,30,11,12,19.30
2006,06,30,11,13,19.30
2006,06,30,11,14,19.40
2006,06,30,11,15,19.40
2006,06,30,11,16,19.40
2006,06,30,11,17,19.40
2006,06,30,11,18,19.40
2006,06,30,11,19,19.40
2006,06,30,11,20,19.30
2006,06,30,11,21,19.30
2006,06,30,11,22,19.40
2006,06,30,11,23,19.40
2006,06,30,11,24,19.40
2006,06,30,11,25,19.40
2006,06,30,11,26,19.30
2006,06,30,11,27,19.30
2006,06,30,11,28,19.30
2006,06,30,11,29,19.20
2006,06,30,11,30,19.30
2006,06,30,11,31,19.50
2006,06,30,11,32,19.60
2006,06,30,11,33,19.60
2006,06,30,11,34,19.50
2006,06,30,11,35,19.50
2006,06,30,11,36,19.50
2006,06,30,11,37,19.60
2006,06,30,11,38,19.60
2006,06,30,11,39,19.60
2006,06,30,11,40,19.60
2006,06,30,11,41,19.60
2006,06,30,11,42,19.50
2006,06,30,11,43,19.50
2006,06,30,11,44,19.60
2006,06,30,11,45,19.60
2006,06,30,11,46,19.60
2006,06,30,11,47,19.60
2006,06,30,11,48,19.60
2006,06,30,11,49,19.60
2006,06,30,11,50,19.60
2006,06,30,11,51,19.60
2006,06,30,11,52,19.70
2006,06,30,11,53,19.70
2006,06,30,11,54,19.70
2006,06,30,11,55,19.60
2006,06,30,11,56,19.60
2006,06,30,11,57,19.60
2006,06,30,11,58,19.60
2006,06,30,11,59,19.60
2006,06,30,12,00,19.70
2006,06,30,12,01,19.80
2006,06,30,12,02,19.90
2006,06,30,12,03,20.10
2006,06,30,12,04,20.20
2006,06,30,12,05,20.30
2006,06,30,12,06,20.40
2006,06,30,12,07,20.50
2006,06,30,12,08,20.60
2006,06,30,12,09,20.60
2006,06,30,12,10,20.60
2006,06,30,12,11,20.50
2006,06,30,12,12,20.60
2006,06,30,12,13,20.50
2006,06,30,12,14,20.50
2006,06,30,12,15,20.50
2006,06,30,12,16,20.40
2006,06,30,12,17,20.40
2006,06,30,12,18,20.40
2006,06,30,12,19,20.40
2006,06,30,12,20,20.40
2006,06,30,12,21,20.40
2006,06,30,12,22,20.40
2006,06,30,12,23,20.40
2006,06,30,12,24,20.40
2006,06,30,12,25,20.40
2006,06,30,12,26,20.50
2006,06,30,12,27,20.60
2006,06,30,12,28,20.70
2006,06,30,12,29,20.70
2006,06,30,12,30,20.80
2006,06,30,12,31,20.80
2006,06,30,12,32,20.90
2006,06,30,12,33,21.00
2006,06,30,12,34,21.10
2006,06,30,12,35,21.20
2006,06,30,12,36,21.30
2006,06,30,12,37,21.40
2006,06,30,12,38,21.50
2006,06,30,12,39,21.60
2006,06,30,12,40,21.60
2006,06,30,12,41,21.60
2006,06,30,12,42,21.50
2006,06,30,12,43,21.50
2006,06,30,12,44,21.40
2006,06,30,12,45,21.30
2006,06,30,12,46,21.30
2006,06,30,12,47,21.30
2006,06,30,12,48,21.40
2006,06,30,12,49,21.40
2006,06,30,12,50,21.50
2006,06,30,12,51,21.50
2006,06,30,12,52,21.60
2006,06,30,12,53,21.70
2006,06,30,12,54,21.80
2006,06,30,12,55,21.80
2006,06,30,12,56,21.90
2006,06,30,12,57,22.10
2006,06,30,12,58,22.20
2006,06,30,12,59,22.30
2006,06,30,13,00,22.30
2006,06,30,13,01,22.40
2006,06,30,13,02,22.50
2006,06,30,13,03,22.50
2006,06,30,13,04,22.40
2006,06,30,13,05,22.40
2006,06,30,13,06,22.50
2006,06,30,13,07,22.60
2006,06,30,13,08,22.70
2006,06,30,13,09,22.80
2006,06,30,13,10,22.90
2006,06,30,13,11,22.90
2006,06,30,13,12,22.90
2006,06,30,13,13,22.80
2006,06,30,13,14,22.80
2006,06,30,13,15,22.90
2006,06,30,13,16,23.00
2006,06,30,13,17,23.10
2006,06,30,13,18,23.30
2006,06,30,13,19,23.40
2006,06,30,13,20,23.40
2006,06,30,13,21,23.30
2006,06,30,13,22,23.30
2006,06,30,13,23,23.30
2006,06,30,13,24,23.30
2006,06,30,13,25,23.30
2006,06,30,13,26,23.30
2006,06,30,13,27,23.20
2006,06,30,13,28,23.10
2006,06,30,13,29,23.10
2006,06,30,13,30,23.00
2006,06,30,13,31,23.10
2006,06,30,13,32,23.10
2006,06,30,13,33,23.10
2006,06,30,13,34,23.20
2006,06,30,13,35,23.20
2006,06,30,13,36,23.30
2006,06,30,13,37,23.30
2006,06,30,13,38,23.30
2006,06,30,13,39,23.30
2006,06,30,13,40,23.30
2006,06,30,13,41,23.20
2006,06,30,13,42,23.20
2006,06,30,13,43,23.20
2006,06,30,13,44,23.30
2006,06,30,13,45,23.30
2006,06,30,13,46,23.30
2006,06,30,13,47,23.30
2006,06,30,13,48,23.40
2006,06,30,13,49,23.40
2006,06,30,13,50,23.60
2006,06,30,13,51,23.80
2006,06,30,13,52,23.90
2006,06,30,13,53,24.00
2006,06,30,13,54,24.00
2006,06,30,13,55,24.00
2006,06,30,13,56,24.10
2006,06,30,13,57,24.10
2006,06,30,13,58,24.00
2006,06,30,13,59,24.00
2006,06,30,14,00,24.00
2006,06,30,14,01,24.20
2006,06,30,14,02,24.30
2006,06,30,14,03,24.30
2006,06,30,14,04,24.30
2006,06,30,14,05,24.20
2006,06,30,14,06,24.10
2006,06,30,14,07,24.00
2006,06,30,14,08,23.90
2006,06,30,14,09,23.90
2006,06,30,14,10,23.80
2006,06,30,14,11,23.80
2006,06,30,14,12,23.80
2006,06,30,14,13,23.80
2006,06,30,14,14,23.70
2006,06,30,14,15,23.60
2006,06,30,14,16,23.50
2006,06,30,14,17,23.50
2006,06,30,14,18,23.50
2006,06,30,14,19,23.50
2006,06,30,14,20,23.50
2006,06,30,14,21,23.50
2006,06,30,14,22,23.50
2006,06,30,14,23,23.60
2006,06,30,14,24,23.60
2006,06,30,14,25,23.70
2006,06,30,14,26,23.70
2006,06,30,14,27,23.70
2006,06,30,14,28,23.60
2006,06,30,14,29,23.60
2006,06,30,14,30,23.60
2006,06,30,14,31,23.60
2006,06,30,14,32,23.70
2006,06,30,14,33,23.80
2006,06,30,14,34,23.90
2006,06,30,14,35,23.90
2006,06,30,14,36,24.00
2006,06,30,14,37,24.10
2006,06,30,14,38,24.10
2006,06,30,14,39,24.00
2006,06,30,14,40,23.90
2006,06,30,14,41,23.80
2006,06,30,14,42,23.80
2006,06,30,14,43,23.80
2006,06,30,14,44,23.80
2006,06,30,14,45,23.80
2006,06,30,14,46,23.80
2006,06,30,14,47,23.80
2006,06,30,14,48,23.90
2006,06,30,14,49,23.90
2006,06,30,14,50,24.00
2006,06,30,14,51,24.00
2006,06,30,14,52,23.90
2006,06,30,14,53,23.90
2006,06,30,14,54,24.00
2006,06,30,14,55,24.00
2006,06,30,14,56,24.10
2006,06,30,14,57,24.10
2006,06,30,14,58,24.10
2006,06,30,14,59,24.20
2006,06,30,15,00,24.20
2006,06,30,15,01,24.20
2006,06,30,15,02,24.20
2006,06,30,15,03,24.10
2006,06,30,15,04,24.10
2006,06,30,15,05,24.10
2006,06,30,15,06,24.10
2006,06,30,15,07,24.10
2006,06,30,15,08,24.10
2006,06,30,15,09,24.10
2006,06,30,15,10,24.20
2006,06,30,15,11,24.20
2006,06,30,15,12,24.20
2006,06,30,15,13,24.20
2006,06,30,15,14,24.20
2006,06,30,15,15,24.20
2006,06,30,15,16,24.20
2006,06,30,15,17,24.10
2006,06,30,15,18,24.10
2006,06,30,15,19,24.10
2006,06,30,15,20,24.10
2006,06,30,15,21,24.10
2006,06,30,15,22,24.20
2006,06,30,15,23,24.20
2006,06,30,15,24,24.20
2006,06,30,15,25,24.20
2006,06,30,15,26,24.20
2006,06,30,15,27,24.20
2006,06,30,15,28,24.10
2006,06,30,15,29,24.10
2006,06,30,15,30,24.10
2006,06,30,15,31,24.10
2006,06,30,15,32,24.10
2006,06,30,15,33,24.10
2006,06,30,15,34,24.10
2006,06,30,15,35,24.30
2006,06,30,15,36,24.30
2006,06,30,15,37,24.20
2006,06,30,15,38,24.30
2006,06,30,15,39,24.30
2006,06,30,15,40,24.30
2006,06,30,15,41,24.30
2006,06,30,15,42,24.20
2006,06,30,15,43,24.10
2006,06,30,15,44,24.10
2006,06,30,15,45,24.00
2006,06,30,15,46,24.00
2006,06,30,15,47,23.90
2006,06,30,15,48,23.80
2006,06,30,15,49,23.80
2006,06,30,15,50,23.70
2006,06,30,15,51,23.70
2006,06,30,15,52,23.80
2006,06,30,15,53,23.70
2006,06,30,15,54,23.80
2006,06,30,15,55,23.80
2006,06,30,15,56,23.70
2006,06,30,15,57,23.70
2006,06,30,15,58,23.70
2006,06,30,15,59,23.80
2006,06,30,16,00,23.90
2006,06,30,16,01,24.00
2006,06,30,16,02,24.10
2006,06,30,16,03,24.20
2006,06,30,16,04,24.30
2006,06,30,16,05,24.40
2006,06,30,16,06,24.50
2006,06,30,16,07,24.40
2006,06,30,16,08,24.40
2006,06,30,16,09,24.40
2006,06,30,16,10,24.30
2006,06,30,16,11,24.20
2006,06,30,16,12,24.10
2006,06,30,16,13,24.10
2006,06,30,16,14,24.00
2006,06,30,16,15,24.00
2006,06,30,16,16,24.00
2006,06,30,16,17,23.90
2006,06,30,16,18,24.00
2006,06,30,16,19,24.00
2006,06,30,16,20,24.10
2006,06,30,16,21,24.10
2006,06,30,16,22,24.10
2006,06,30,16,23,24.10
2006,06,30,16,24,24.10
2006,06,30,16,25,24.20
2006,06,30,16,26,24.20
2006,06,30,16,27,24.10
2006,06,30,16,28,24.00
2006,06,30,16,29,24.10
2006,06,30,16,30,24.10
2006,06,30,16,31,24.20
2006,06,30,16,32,24.30
2006,06,30,16,33,24.20
2006,06,30,16,34,24.20
2006,06,30,16,35,24.20
2006,06,30,16,36,24.20
2006,06,30,16,37,24.20
2006,06,30,16,38,24.10
2006,06,30,16,39,24.00
2006,06,30,16,40,23.90
2006,06,30,16,41,23.80
2006,06,30,16,42,23.70
2006,06,30,16,43,23.50
2006,06,30,16,44,23.40
2006,06,30,16,45,23.40
2006,06,30,16,46,23.30
2006,06,30,16,47,23.30
2006,06,30,16,48,23.20
2006,06,30,16,49,23.10
2006,06,30,16,50,23.10
2006,06,30,16,51,23.10
2006,06,30,16,52,23.10
2006,06,30,16,53,23.10
2006,06,30,16,54,23.00
2006,06,30,16,55,23.00
2006,06,30,16,56,23.10
2006,06,30,16,57,23.10
2006,06,30,16,58,23.10
2006,06,30,16,59,23.10
2006,06,30,17,00,23.10
2006,06,30,17,01,23.10
2006,06,30,17,02,23.10
2006,06,30,17,03,23.20
2006,06,30,17,04,23.20
2006,06,30,17,05,23.20
2006,06,30,17,06,23.20
2006,06,30,17,07,23.20
2006,06,30,17,08,23.20
2006,06,30,17,09,23.30
2006,06,30,17,10,23.30
2006,06,30,17,11,23.30
2006,06,30,17,12,23.40
2006,06,30,17,13,23.40
2006,06,30,17,14,23.40
2006,06,30,17,15,23.30
2006,06,30,17,16,23.20
2006,06,30,17,17,23.10
2006,06,30,17,18,23.10
2006,06,30,17,19,23.10
2006,06,30,17,20,23.10